Location: Killam
(52.7910°N, 111.8608°W)
Time: 20:16:24
(UTC+00:00)

Transit 2A Rocket - Visible Passes

Search period start: 15 February 2026 00:00
Search period end: 25 February 2026 00:00
Orbit: 582 x 901 km, 66.7° (Epoch: 15 February)

Date Brightness Start Highest point End Pass type
(mag) Time Alt. Az. Time Alt. Az. Time Alt. Az.
15 Feb 5.5 01:02:53 10° SW 01:08:57 86° NW 01:14:56 10° NE visible
15 Feb 6.8 02:46:49 10° W 02:52:09 32° NNW 02:56:55 12° NNE visible
15 Feb 7.2 04:31:56 10° NW 04:36:19 21° N 04:36:37 21° N visible
15 Feb 8.0 06:15:42 10° NW 06:16:19 12° NNW 06:16:19 12° NNW visible
16 Feb 6.4 02:00:28 10° WSW 02:06:09 40° NW 02:11:41 10° NE visible
16 Feb 7.1 03:45:31 10° WNW 03:50:05 22° N 03:52:17 18° NNE visible
16 Feb 7.6 05:29:51 10° NW 05:31:59 18° NNW 05:31:59 18° NNW visible
17 Feb 6.0 01:14:19 10° WSW 01:20:15 55° NW 01:26:03 10° NE visible
17 Feb 7.1 02:59:01 10° WNW 03:03:53 25° NNW 03:07:57 13° NNE visible
17 Feb 7.2 04:43:50 10° NW 04:47:39 21° N 04:47:39 21° N visible
17 Feb 8.0 06:26:58 10° NW 06:27:20 12° NNW 06:27:20 12° NNW visible
18 Feb 6.8 02:12:32 10° W 02:17:46 30° NNW 02:22:50 10° NE visible
18 Feb 7.1 03:57:38 10° NW 04:01:59 20° N 04:03:17 19° NNE visible
18 Feb 7.6 05:41:15 10° NW 05:42:58 17° NNW 05:42:58 17° NNW visible
19 Feb 6.5 01:26:09 10° W 01:31:44 37° NNW 01:37:10 10° NE visible
19 Feb 7.1 03:11:16 10° WNW 03:15:44 21° N 03:18:55 14° NNE visible
19 Feb 7.2 04:55:26 10° NW 04:58:36 21° N 04:58:36 21° N visible
19 Feb 8.1 06:38:09 10° NW 06:38:18 11° NW 06:38:18 11° NW visible
20 Feb 7.1 02:24:47 10° WNW 02:29:31 24° NNW 02:34:06 10° NE visible
20 Feb 7.0 04:09:29 10° NW 04:13:52 21° N 04:14:13 21° NNE visible
20 Feb 7.6 05:52:29 10° NW 05:53:55 17° NNW 05:53:55 17° NNW visible
21 Feb 6.9 01:38:17 10° W 01:43:23 28° NNW 01:48:20 10° NE visible
21 Feb 7.0 03:23:20 10° NW 03:27:38 20° N 03:29:50 17° NNE visible
21 Feb 7.2 05:06:47 10° NW 05:09:31 23° NNW 05:09:31 23° NNW visible
22 Feb 7.1 02:37:00 10° NW 02:41:24 21° N 02:45:27 11° NE visible
22 Feb 6.8 04:21:00 10° NW 04:25:08 24° N 04:25:08 24° N visible
22 Feb 7.7 06:03:39 10° NW 06:04:49 16° NNW 06:04:49 16° NNW visible
23 Feb 7.0 01:50:32 10° WNW 01:55:10 23° NNW 01:59:38 10° NE visible
23 Feb 6.8 03:35:06 10° NW 03:39:31 22° N 03:40:45 20° NNE visible
23 Feb 7.1 05:18:00 10° NW 05:20:26 24° NNW 05:20:26 24° NNW visible
24 Feb 7.0 02:49:00 10° NW 02:53:17 20° N 02:56:22 14° NE visible
24 Feb 6.6 04:32:18 10° NW 04:36:03 28° N 04:36:03 28° N visible
24 Feb 7.8 06:14:50 10° NW 06:15:44 15° NW 06:15:44 15° NW visible
